Station PNGW3 - Port Wing, WI Image indicating link to RSS feed of recent meteorological observations for station PNGW3


Conditions at PNGW3 as of
(7:40 pm CDT on 06/22/2024)
0040 GMT on 06/23/2024:
     

Click on the graph icon in the table below to see a time series plot of the last five days of that observation.

5-day plot - Wind Direction Wind Direction (WDIR): NE ( 50 deg true )
5-day plot - Wind Speed Wind Speed (WSPD): 8.0 kts
5-day plot - Wind Gust Wind Gust (GST): 8.9 kts
5-day plot - Atmospheric Pressure Atmospheric Pressure (PRES):29.84 in
5-day plot - Air Temperature Air Temperature (ATMP): 48.7 °F
5-day plot - Wind Chill Wind Chill (CHILL): 44.8 °F
5-day plot - Wind Speed at 10 Meters Wind Speed at 10 meters (WSPD10M): 7.8 kts
5-day plot - Wind Speed at 20 Meters Wind Speed at 20 meters (WSPD20M): 9.7 kts
5-day plot -  Wind Speed, Wind Gust and Atmospheric Pressure Combined plot of Wind Speed, Gust, and Air Pressure
Previous observations
TIME
(CDT)
5-day plot - Wind Direction
WDIR
 
5-day plot - Wind Speed
WSPD
kts
5-day plot - Wind Gust
GST
kts
5-day plot - Wave Height
WVHT
ft
5-day plot - Dominant Wave Period
DPD
sec
5-day plot - Average Wave Period
APD
sec
5-day plot - Mean Wave Direction
MWD
 
5-day plot - Atmospheric Pressure
PRES
in
5-day plot - Pressure Tendency
PTDY
in
5-day plot - Air Temperature
ATMP
°F
5-day plot - Water Temperature
WTMP
°F
5-day plot - Dew Point
DEWP
°F
5-day plot - Salinity
SAL
psu
5-day plot - Visibility
VIS
nmi
5-day plot - Tide (above MLLW)
TIDE
ft
2024-06-22 07:30 pm NE 8.0 8.9----29.84- 48.9-----
2024-06-22 07:20 pmNNE 8.0 9.9----29.84- 48.7-----
2024-06-22 07:10 pm NE 8.0 9.9----29.83- 48.9-----
2024-06-22 07:00 pmNNE 8.0 9.9----29.83-0.01 48.7-----
2024-06-22 06:50 pmNNE 6.0 8.0----29.83- 49.5-----
2024-06-22 06:40 pmNNE 6.0 7.0----29.82- 49.6-----
2024-06-22 06:30 pmNNE 7.0 9.9----29.82- 49.6-----
2024-06-22 06:20 pmNNE 6.0 8.0----29.82- 48.9-----
2024-06-22 06:10 pm N 4.1 8.9----29.82- 48.2-----
2024-06-22 06:00 pm N 8.0 9.9----29.81-0.05 47.8-----
2024-06-22 05:50 pm N 11.1 13.0----29.81- 47.8-----
2024-06-22 05:40 pmNNE 12.0 13.0----29.79- 47.8-----
2024-06-22 05:30 pm NE 8.9 9.9----29.80- 47.7-----
2024-06-22 05:20 pmNNE 8.0 9.9----29.81- 47.5-----
2024-06-22 05:10 pmNNE 9.9 11.1----29.81- 47.7-----
2024-06-22 05:00 pm NE 4.1 7.0----29.82-0.04 48.6-----
2024-06-22 04:50 pm NE 1.9 4.1----29.84- 49.1-----
2024-06-22 04:40 pmNNE 1.9 4.1----29.85- 49.1-----
2024-06-22 04:30 pm NE 2.9 8.0----29.85- 48.9-----
2024-06-22 04:20 pmNNE 6.0 8.9----29.84- 48.7-----
2024-06-22 04:10 pmNNE 8.0 9.9----29.84- 48.6-----
2024-06-22 04:00 pm N 8.0 12.0----29.84-0.02 48.4-----
2024-06-22 03:50 pmNNE 12.0 14.0----29.83- 48.4-----
2024-06-22 03:40 pm N 12.0 13.0----29.84- 47.8-----
2024-06-22 03:30 pmNNE 9.9 13.0----29.84- 47.7-----
2024-06-22 03:20 pmNNE 12.0 14.0----29.85- 48.4-----
2024-06-22 03:10 pmNNE 12.0 14.0----29.85- 48.9-----
2024-06-22 03:00 pm NE 11.1 15.0----29.86-0.01 49.1-----
2024-06-22 02:50 pm NE 14.0 15.0----29.85- 48.9-----
2024-06-22 02:40 pm NE 11.1 12.0----29.86- 48.4-----
2024-06-22 02:30 pmNNE 11.1 15.0----29.86- 48.2-----
2024-06-22 02:20 pmNNE 12.0 14.0----29.86- 48.9-----
2024-06-22 02:10 pm NE 12.0 15.9----29.86- 48.6-----
2024-06-22 02:00 pmNNE 15.0 18.1----29.86-0.03 48.4-----
2024-06-22 01:50 pm N 15.0 18.1----29.85- 48.6-----
2024-06-22 01:40 pmNNE 15.0 15.9----29.85- 49.8-----
2024-06-22 01:30 pmNNE 15.0 19.0----29.85- 51.1-----
2024-06-22 01:20 pmNNE 15.9 19.0----29.85- 50.0-----
2024-06-22 01:10 pmNNE 15.9 18.1----29.85- 49.8-----
2024-06-22 01:00 pmNNE 15.9 18.1----29.86-0.04 49.5-----
2024-06-22 12:50 pmNNE 15.0 17.1----29.86- 48.9-----
2024-06-22 12:40 pmNNE 14.0 15.9----29.87- 48.7-----
2024-06-22 12:30 pmNNE 15.0 15.9----29.87- 48.7-----
2024-06-22 12:20 pmNNE 15.0 17.1----29.87- 48.9-----
2024-06-22 12:10 pmNNE 15.0 19.0----29.87- 49.5-----
2024-06-22 12:00 pmNNE 17.1 21.0----29.87-0.04 50.2-----
2024-06-22 11:50 am NE 18.1 21.0----29.87- 50.9-----
2024-06-22 11:40 am NE 19.0 21.0----29.87- 50.9-----
2024-06-22 11:30 am NE 19.0 21.0----29.87- 50.4-----
2024-06-22 11:20 am NE 18.1 20.0----29.89- 50.2-----
2024-06-22 11:10 am NE 17.1 19.0----29.88- 50.0-----
2024-06-22 11:00 am NE 15.9 18.1----29.89-0.02 49.8-----
2024-06-22 10:50 am NE 15.0 18.1----29.89- 49.6-----
2024-06-22 10:40 amNNE 15.0 15.9----29.89- 49.8-----
2024-06-22 10:30 am NE 14.0 15.9----29.89- 50.0-----
2024-06-22 10:20 am NE 13.0 14.0----29.90- 49.6-----
2024-06-22 10:10 am NE 12.0 13.0----29.90- 49.5-----
2024-06-22 10:00 amNNE 12.0 14.0----29.90-0.03 49.1-----
2024-06-22 09:50 amNNE 11.1 13.0----29.90- 49.3-----
2024-06-22 09:40 amNNE 12.0 14.0----29.90- 49.6-----
2024-06-22 09:30 amNNE 12.0 14.0----29.90- 49.5-----
2024-06-22 09:20 amNNE 13.0 14.0----29.91- 49.6-----
2024-06-22 09:10 amNNE 13.0 15.9----29.91- 49.8-----
2024-06-22 09:00 amNNE 13.0 14.0----29.91-0.03 50.2-----
2024-06-22 08:50 am NE 12.0 14.0----29.92- 49.8-----
2024-06-22 08:40 am NE 13.0 15.0----29.92- 49.5-----
2024-06-22 08:30 amNNE 14.0 15.9----29.92- 49.3-----
2024-06-22 08:20 amNNE 13.0 15.0----29.92- 49.1-----
2024-06-22 08:10 amNNE 12.0 15.0----29.92- 49.3-----
2024-06-22 08:00 amNNE 15.0 15.0----29.91-0.04 49.3-----
2024-06-22 07:50 amNNE 14.0 14.0----29.92- 49.1-----
2024-06-22 07:40 amNNE 12.0 13.0----29.92- 48.9-----
2024-06-22 07:30 amNNE 12.0 13.0----29.92- 49.1-----
2024-06-22 07:20 amNNE 11.1 13.0----29.93- 49.1-----
2024-06-22 07:10 amNNE 12.0 13.0----29.93- 49.1-----
2024-06-22 07:00 amNNE 12.0 13.0----29.93-0.04 49.1-----
2024-06-22 06:50 amNNE 12.0 14.0----29.93- 49.3-----
2024-06-22 06:40 amNNE 12.0 14.0----29.93- 49.3-----
2024-06-22 06:30 amNNE 13.0 14.0----29.93- 49.5-----
2024-06-22 06:20 amNNE 12.0 13.0----29.94- 49.3-----
2024-06-22 06:10 amNNE 9.9 12.0----29.94- 49.3-----
2024-06-22 06:00 amNNE 8.9 11.1----29.94-0.05 49.1-----
2024-06-22 05:50 amNNE 11.1 14.0----29.94- 49.5-----
2024-06-22 05:40 amNNE 13.0 14.0----29.94- 49.3-----
2024-06-22 05:30 amNNE 11.1 15.0----29.94- 49.1-----
2024-06-22 05:20 amNNE 13.0 15.0----29.94- 49.1-----
2024-06-22 05:10 amNNE 13.0 15.9----29.95- 49.5-----
2024-06-22 05:00 amNNE 13.0 14.0----29.95-0.08 49.6-----
2024-06-22 04:50 am NE 9.9 13.0----29.95- 49.5-----
2024-06-22 04:40 am NE 12.0 15.0----29.95- 49.3-----
2024-06-22 04:30 amNNE 13.0 14.0----29.96- 49.6-----
2024-06-22 04:20 amNNE 12.0 14.0----29.96- 49.3-----
2024-06-22 04:10 amNNE 8.0 9.9----29.96- 50.0-----
2024-06-22 04:00 amNNE 8.9 11.1----29.97-0.06 49.8-----
2024-06-22 03:50 amNNE 9.9 11.1----29.97- 49.5-----
2024-06-22 03:40 am NE 5.1 8.0----29.98- 50.9-----
2024-06-22 03:30 am NE 7.0 8.9----29.99- 50.4-----
2024-06-22 03:20 am E 2.9 11.1----30.00- 50.4-----
2024-06-22 03:10 am NE 12.0 13.0----30.00- 50.4-----
2024-06-22 03:00 am NE 12.0 13.0----29.99-0.07 50.5-----
2024-06-22 02:50 am NE 13.0 15.0----30.00- 50.5-----
2024-06-22 02:40 am NE 14.0 15.9----30.00- 50.2-----
2024-06-22 02:30 am NE 14.0 15.0----30.01- 49.5-----
2024-06-22 02:20 am NE 9.9 12.0----30.01- 49.1-----
2024-06-22 02:10 amNNE 9.9 12.0----30.02- 49.6-----
2024-06-22 02:00 amNNE 8.0 9.9----30.03-0.05 49.5-----
2024-06-22 01:50 amNNE 7.0 7.0----30.03- 49.8-----
2024-06-22 01:40 amNNE 5.1 7.0----30.03- 50.5-----
2024-06-22 01:30 am NE 5.1 6.0----30.04- 50.9-----
2024-06-22 01:20 amNNE 4.1 6.0----30.03- 51.6-----
2024-06-22 01:10 amNNE 5.1 6.0----30.03- 51.4-----
2024-06-22 01:00 am NE 4.1 5.1----30.03-0.06 52.0-----
2024-06-22 12:50 am N 1.9 1.9----30.03- 52.7-----
2024-06-22 12:40 am- 0.0 1.9----30.03- 52.5-----
2024-06-22 12:30 amSSE 1.9 2.9----30.04- 51.8-----
2024-06-22 12:20 am- 0.0 6.0----30.05- 50.5-----
2024-06-22 12:10 amNNE 2.9 5.1----30.06- 50.9-----
2024-06-22 12:00 am N 4.1 5.1----30.06-0.02 50.5-----
2024-06-21 11:50 pm- 0.0 1.9----30.06- 50.9-----
2024-06-21 11:40 pmSSW 1.0 1.9----30.07- 50.2-----
2024-06-21 11:30 pm- 0.0 1.0----30.07- 49.6-----
2024-06-21 11:20 pm E 1.9 6.0----30.07- 49.3-----
2024-06-21 11:10 pmNNE 4.1 6.0----30.08- 49.3-----
2024-06-21 11:00 pmNNW 1.0 1.9----30.08+0.00 51.4-----
2024-06-21 10:50 pm S 1.9 2.9----30.08- 51.4-----
2024-06-21 10:40 pmSSE 1.9 5.1----30.08- 50.2-----
2024-06-21 10:30 pm NE 6.0 8.9----30.09- 49.6-----
2024-06-21 10:20 pm NE 6.0 7.0----30.09- 49.5-----
2024-06-21 10:10 pm NE 4.1 5.1----30.09- 49.8-----
2024-06-21 10:00 pm E 1.9 8.0----30.09-0.03 49.3-----
2024-06-21 09:50 pm NE 6.0 7.0----30.09- 49.6-----
2024-06-21 09:40 pm NE 6.0 9.9----30.09- 50.2-----
2024-06-21 09:30 pm NE 8.9 9.9----30.09- 50.2-----
2024-06-21 09:20 pm NE 8.9 8.9----30.09- 50.5-----
2024-06-21 09:10 pmNNE 7.0 8.9----30.09- 50.4-----
2024-06-21 09:00 pmNNE 7.0 8.0----30.08-0.05 51.1-----
2024-06-21 08:50 pmNNE 2.9 4.1----30.08- 52.0-----
2024-06-21 08:40 pmNNE 1.9 4.1----30.08- 52.3-----
2024-06-21 08:30 pm NE 2.9 5.1----30.08- 54.5-----
2024-06-21 08:20 pm N 5.1 6.0----30.08- 52.3-----
2024-06-21 08:10 pm N 4.1 5.1----30.08- 52.3-----
2024-06-21 08:00 pm N 1.0 1.9----30.08-0.07 52.2-----
2024-06-21 07:50 pm- 0.0 1.9----30.08- 53.6-----